BAW252A MWCR-MYNN

Flight info

Callsign BAW252A
Flight time 1h 4m
Altitude 38000
Route ENAMO B503 HODGY DCT ZQA
Aircraft B77W/H-SDE1E2E3FGHIJ2J3J4J5M1RWXY/LB1D1

Departure

Time 2026-05-08 09:41
Airport Owen Roberts International Airport (MWCR)

Arrival

Time 2026-05-08 10:45
Airport Lynden Pindling International Airport (MYNN)
Time Latitude Longitude Altitude Speed Heading
2026-05-08 09:36 19.29482 -81.35874 21 ft 0 kts 347°
2026-05-08 09:36 19.29480 -81.35873 21 ft 0 kts 347°
2026-05-08 09:37 19.29467 -81.35870 25 ft 0 kts 347°
2026-05-08 09:37 19.29453 -81.35867 23 ft 0 kts 347°
2026-05-08 09:37 19.29440 -81.35863 24 ft 0 kts 335°
2026-05-08 09:37 19.29432 -81.35852 26 ft 0 kts 277°
2026-05-08 09:38 19.29433 -81.35844 21 ft 0 kts 257°
2026-05-08 09:39 19.29409 -81.35900 22 ft 17 kts 249°
2026-05-08 09:39 19.29375 -81.36022 24 ft 16 kts 254°
2026-05-08 09:39 19.29344 -81.36142 23 ft 17 kts 256°
2026-05-08 09:39 19.29303 -81.36264 22 ft 18 kts 245°
2026-05-08 09:40 19.29201 -81.36299 24 ft 13 kts 165°
2026-05-08 09:40 19.29177 -81.36213 23 ft 14 kts 78°
2026-05-08 09:40 19.29267 -81.35813 20 ft 113 kts 76°
2026-05-08 09:40 19.29532 -81.34619 306 ft 202 kts 77°
2026-05-08 09:41 19.29957 -81.33136 1689 ft 212 kts 64°
2026-05-08 09:41 19.30986 -81.31893 2519 ft 239 kts 41°
2026-05-08 09:41 19.32380 -81.30836 3303 ft 253 kts 37°
2026-05-08 09:41 19.33864 -81.29764 4223 ft 261 kts 38°
2026-05-08 09:42 19.35355 -81.28652 5225 ft 267 kts 39°
2026-05-08 09:42 19.36869 -81.27475 6267 ft 271 kts 39°
2026-05-08 09:42 19.38380 -81.26260 7243 ft 275 kts 40°
2026-05-08 09:42 19.39905 -81.24994 8199 ft 280 kts 40°
2026-05-08 09:43 19.41449 -81.23683 9123 ft 286 kts 40°
2026-05-08 09:43 19.43006 -81.22338 10058 ft 290 kts 40°
2026-05-08 09:43 19.44591 -81.20953 10765 ft 304 kts 40°
2026-05-08 09:43 19.46292 -81.19451 11017 ft 333 kts 41°
2026-05-08 09:44 19.48144 -81.17804 11230 ft 362 kts 41°
2026-05-08 09:44 19.50092 -81.16063 11754 ft 377 kts 41°
2026-05-08 09:44 19.52115 -81.14250 12571 ft 383 kts 41°
2026-05-08 09:44 19.54161 -81.12412 13483 ft 387 kts 41°
2026-05-08 09:45 19.56223 -81.10556 14343 ft 390 kts 41°
2026-05-08 09:45 19.58304 -81.08679 15110 ft 394 kts 41°
2026-05-08 09:45 19.60408 -81.06781 15838 ft 400 kts 41°
2026-05-08 09:45 19.62539 -81.04855 16564 ft 405 kts 42°
2026-05-08 09:46 19.64694 -81.02908 17290 ft 409 kts 42°
2026-05-08 09:46 19.66875 -81.00936 18025 ft 414 kts 42°
2026-05-08 09:46 19.69082 -80.98940 18672 ft 419 kts 41°
2026-05-08 09:46 19.70555 -80.97607 19090 ft 421 kts 41°
2026-05-08 09:47 19.72795 -80.95580 19744 ft 425 kts 41°
2026-05-08 09:47 19.75055 -80.93535 20393 ft 428 kts 41°
2026-05-08 09:47 19.78072 -80.90803 21221 ft 433 kts 40°
2026-05-08 09:47 19.80375 -80.88716 21841 ft 437 kts 40°
2026-05-08 09:48 19.81948 -80.87291 22235 ft 440 kts 40°
2026-05-08 09:48 19.84254 -80.85201 22841 ft 444 kts 40°
2026-05-08 09:48 19.86617 -80.83058 23440 ft 447 kts 39°
2026-05-08 09:48 19.88998 -80.80898 23936 ft 451 kts 39°
2026-05-08 09:49 19.91398 -80.78719 24417 ft 455 kts 39°
2026-05-08 09:49 19.93815 -80.76525 24901 ft 458 kts 39°
2026-05-08 09:49 19.96248 -80.74314 25387 ft 461 kts 39°
2026-05-08 09:49 19.98700 -80.72086 25834 ft 465 kts 39°
2026-05-08 09:50 20.01137 -80.69869 26286 ft 469 kts 39°
2026-05-08 09:50 20.03631 -80.67600 26729 ft 472 kts 39°
2026-05-08 09:50 20.06138 -80.65320 27164 ft 476 kts 39°
2026-05-08 09:50 20.08664 -80.63019 27635 ft 479 kts 39°
2026-05-08 09:51 20.11207 -80.60702 28063 ft 482 kts 39°
2026-05-08 09:51 20.13767 -80.58370 28467 ft 486 kts 39°
2026-05-08 09:51 20.16347 -80.56017 28877 ft 489 kts 39°
2026-05-08 09:51 20.18907 -80.53682 29261 ft 492 kts 39°
2026-05-08 09:52 20.21517 -80.51300 29628 ft 495 kts 39°
2026-05-08 09:52 20.24138 -80.48907 30053 ft 496 kts 39°
2026-05-08 09:52 20.26759 -80.46512 30531 ft 495 kts 39°
2026-05-08 09:52 20.29367 -80.44129 31038 ft 493 kts 39°
2026-05-08 09:53 20.31970 -80.41749 31550 ft 491 kts 39°
2026-05-08 09:53 20.34562 -80.39377 32025 ft 490 kts 39°
2026-05-08 09:53 20.37148 -80.37011 32503 ft 489 kts 39°
2026-05-08 09:53 20.39695 -80.34680 32964 ft 488 kts 39°
2026-05-08 09:54 20.42274 -80.32318 33424 ft 487 kts 39°
2026-05-08 09:54 20.44851 -80.29956 33913 ft 486 kts 39°
2026-05-08 09:54 20.47417 -80.27604 34303 ft 485 kts 39°
2026-05-08 09:54 20.49976 -80.25257 34666 ft 485 kts 39°
2026-05-08 09:55 20.53361 -80.22151 35122 ft 485 kts 39°
2026-05-08 09:55 20.55056 -80.20595 35349 ft 484 kts 39°
2026-05-08 09:55 20.57607 -80.18252 35709 ft 484 kts 39°
2026-05-08 09:55 20.60156 -80.15910 36060 ft 483 kts 39°
2026-05-08 09:56 20.62705 -80.13566 36393 ft 483 kts 39°
2026-05-08 09:56 20.65257 -80.11220 36706 ft 483 kts 39°
2026-05-08 09:56 20.67805 -80.08875 37029 ft 483 kts 39°
2026-05-08 09:56 20.70348 -80.06534 37328 ft 482 kts 39°
2026-05-08 09:57 20.75429 -80.01854 37912 ft 482 kts 39°
2026-05-08 09:57 20.80546 -79.97136 38003 ft 487 kts 39°
2026-05-08 09:58 20.85660 -79.92416 37986 ft 482 kts 39°
2026-05-08 09:58 20.90686 -79.87772 37992 ft 479 kts 39°
2026-05-08 09:59 20.95727 -79.83112 37989 ft 478 kts 39°
2026-05-08 09:59 21.00760 -79.78455 38001 ft 479 kts 39°
2026-05-08 10:00 21.05805 -79.73782 38011 ft 480 kts 39°
2026-05-08 10:00 21.10861 -79.69094 38002 ft 481 kts 39°
2026-05-08 10:01 21.15929 -79.64391 38002 ft 482 kts 39°
2026-05-08 10:01 21.21003 -79.59678 38000 ft 483 kts 39°
2026-05-08 10:02 21.26052 -79.54984 38002 ft 484 kts 39°
2026-05-08 10:02 21.31142 -79.50245 38003 ft 484 kts 39°
2026-05-08 10:03 21.36231 -79.45505 37999 ft 484 kts 39°
2026-05-08 10:03 21.41322 -79.40758 38002 ft 484 kts 39°
2026-05-08 10:04 21.46373 -79.36044 38005 ft 483 kts 39°
2026-05-08 10:04 21.51451 -79.31299 38008 ft 483 kts 39°
2026-05-08 10:05 21.56519 -79.26560 38009 ft 482 kts 39°
2026-05-08 10:05 21.61551 -79.21850 38012 ft 482 kts 39°
2026-05-08 10:06 21.66608 -79.17112 38012 ft 482 kts 39°
2026-05-08 10:06 21.71662 -79.12373 38016 ft 482 kts 39°
2026-05-08 10:07 21.76717 -79.07627 38012 ft 482 kts 39°
2026-05-08 10:07 21.81741 -79.02906 38012 ft 482 kts 39°
2026-05-08 10:08 21.86791 -78.98156 38020 ft 482 kts 39°
2026-05-08 10:08 21.91842 -78.93401 38020 ft 482 kts 39°
2026-05-08 10:09 21.96897 -78.88637 38021 ft 482 kts 39°
2026-05-08 10:09 22.01953 -78.83867 38017 ft 482 kts 39°
2026-05-08 10:10 22.06978 -78.79122 38019 ft 482 kts 39°
2026-05-08 10:10 22.12028 -78.74350 38016 ft 482 kts 39°
2026-05-08 10:11 22.17077 -78.69572 38019 ft 482 kts 39°
2026-05-08 10:11 22.22123 -78.64793 38011 ft 482 kts 39°
2026-05-08 10:12 22.27171 -78.60008 38018 ft 482 kts 39°
2026-05-08 10:12 22.32187 -78.55247 38009 ft 482 kts 39°
2026-05-08 10:13 22.37226 -78.50460 38010 ft 482 kts 39°
2026-05-08 10:13 22.42271 -78.45664 38013 ft 482 kts 39°
2026-05-08 10:14 22.47307 -78.40870 38013 ft 482 kts 39°
2026-05-08 10:14 22.52355 -78.36060 38008 ft 482 kts 39°
2026-05-08 10:15 22.57356 -78.31291 38012 ft 482 kts 39°
2026-05-08 10:15 22.62398 -78.26477 38014 ft 482 kts 39°
2026-05-08 10:16 22.67429 -78.21669 38009 ft 482 kts 39°
2026-05-08 10:16 22.72456 -78.16860 38011 ft 482 kts 39°
2026-05-08 10:17 22.77457 -78.12071 38015 ft 482 kts 39°
2026-05-08 10:17 22.82489 -78.07247 38013 ft 482 kts 39°
2026-05-08 10:18 22.87518 -78.02421 38016 ft 482 kts 39°
2026-05-08 10:18 22.92546 -77.97591 38014 ft 482 kts 39°
2026-05-08 10:19 22.97569 -77.92760 38013 ft 482 kts 39°
2026-05-08 10:20 23.05072 -77.85537 38018 ft 482 kts 39°
2026-05-08 10:20 23.10095 -77.80694 38016 ft 482 kts 39°
2026-05-08 10:21 23.15112 -77.75851 38018 ft 482 kts 39°
2026-05-08 10:21 23.20100 -77.71033 38017 ft 482 kts 39°
2026-05-08 10:22 23.25112 -77.66185 38016 ft 482 kts 39°
2026-05-08 10:22 23.30126 -77.61331 38022 ft 482 kts 39°
2026-05-08 10:23 23.35190 -77.56426 37038 ft 496 kts 39°
2026-05-08 10:23 23.37731 -77.53962 36368 ft 494 kts 39°
2026-05-08 10:23 23.40294 -77.51473 35604 ft 494 kts 39°
2026-05-08 10:23 23.42867 -77.48973 34761 ft 496 kts 39°
2026-05-08 10:24 23.45445 -77.46466 34024 ft 496 kts 39°
2026-05-08 10:24 23.48021 -77.43962 33081 ft 497 kts 39°
2026-05-08 10:24 23.50606 -77.41448 32170 ft 498 kts 39°
2026-05-08 10:24 23.53243 -77.39037 31479 ft 490 kts 32°
2026-05-08 10:25 23.56223 -77.37335 30896 ft 479 kts 17°
2026-05-08 10:25 23.59417 -77.36397 30277 ft 472 kts
2026-05-08 10:25 23.62665 -77.36201 29574 ft 462 kts 354°
2026-05-08 10:25 23.65854 -77.36452 28953 ft 457 kts 354°
2026-05-08 10:26 23.68977 -77.36701 28329 ft 454 kts 354°
2026-05-08 10:26 23.72113 -77.36934 27736 ft 450 kts 354°
2026-05-08 10:26 23.75230 -77.37147 27129 ft 446 kts 354°
2026-05-08 10:26 23.78320 -77.37345 26539 ft 443 kts 354°
2026-05-08 10:27 23.81390 -77.37534 25957 ft 440 kts 354°
2026-05-08 10:27 23.84433 -77.37719 25364 ft 437 kts 354°
2026-05-08 10:27 23.87468 -77.37903 24777 ft 435 kts 354°
2026-05-08 10:27 23.90481 -77.38086 24193 ft 432 kts 354°
2026-05-08 10:28 23.93487 -77.38269 23614 ft 430 kts 354°
2026-05-08 10:28 23.96429 -77.38450 22957 ft 428 kts 355°
2026-05-08 10:28 23.99398 -77.38632 22361 ft 424 kts 355°
2026-05-08 10:28 24.02337 -77.38812 21782 ft 421 kts 355°
2026-05-08 10:29 24.05247 -77.38990 21226 ft 417 kts 355°
2026-05-08 10:29 24.08139 -77.39143 20675 ft 414 kts 356°
2026-05-08 10:29 24.11012 -77.39271 20126 ft 411 kts 356°
2026-05-08 10:29 24.13863 -77.39398 19572 ft 409 kts 356°
2026-05-08 10:30 24.16700 -77.39639 19006 ft 407 kts 352°
2026-05-08 10:30 24.19442 -77.40195 18461 ft 405 kts 348°
2026-05-08 10:30 24.22191 -77.40835 17832 ft 404 kts 348°
2026-05-08 10:30 24.24934 -77.41471 17251 ft 401 kts 348°
2026-05-08 10:31 24.27664 -77.42101 16674 ft 399 kts 348°
2026-05-08 10:31 24.30382 -77.42723 16118 ft 397 kts 348°
2026-05-08 10:31 24.33086 -77.43340 15572 ft 395 kts 349°
2026-05-08 10:31 24.35777 -77.43952 15028 ft 393 kts 349°
2026-05-08 10:32 24.38425 -77.44552 14483 ft 392 kts 349°
2026-05-08 10:32 24.41097 -77.45159 13944 ft 391 kts 349°
2026-05-08 10:32 24.43766 -77.45764 13352 ft 390 kts 349°
2026-05-08 10:32 24.46418 -77.46366 12799 ft 388 kts 349°
2026-05-08 10:33 24.49059 -77.46965 12256 ft 386 kts 349°
2026-05-08 10:33 24.51680 -77.47561 11743 ft 383 kts 349°
2026-05-08 10:33 24.54283 -77.48152 11231 ft 381 kts 349°
2026-05-08 10:33 24.56859 -77.48738 10916 ft 373 kts 349°
2026-05-08 10:34 24.59364 -77.49308 10750 ft 361 kts 349°
2026-05-08 10:34 24.61789 -77.49861 10586 ft 350 kts 349°
2026-05-08 10:34 24.63359 -77.50218 10461 ft 344 kts 349°
2026-05-08 10:34 24.66411 -77.50913 10279 ft 331 kts 349°
2026-05-08 10:35 24.68628 -77.51419 10148 ft 321 kts 349°
2026-05-08 10:35 24.70783 -77.51910 10018 ft 312 kts 349°
2026-05-08 10:35 24.72213 -77.52236 9838 ft 309 kts 349°
2026-05-08 10:35 24.74236 -77.52698 9543 ft 287 kts 349°
2026-05-08 10:36 24.76131 -77.53130 9045 ft 276 kts 349°
2026-05-08 10:36 24.77960 -77.53547 8678 ft 261 kts 349°
2026-05-08 10:36 24.79703 -77.53944 8372 ft 256 kts 348°
2026-05-08 10:36 24.81484 -77.54350 8195 ft 268 kts 348°
2026-05-08 10:37 24.83343 -77.54774 7885 ft 275 kts 348°
2026-05-08 10:37 24.85227 -77.55204 7567 ft 277 kts 348°
2026-05-08 10:37 24.87115 -77.55635 7243 ft 276 kts 347°
2026-05-08 10:37 24.88996 -77.56065 6921 ft 276 kts 347°
2026-05-08 10:38 24.90882 -77.56496 6605 ft 276 kts 347°
2026-05-08 10:38 24.92742 -77.56922 6267 ft 277 kts 347°
2026-05-08 10:38 24.94633 -77.57355 5930 ft 277 kts 347°
2026-05-08 10:38 24.96527 -77.57789 5537 ft 279 kts 347°
2026-05-08 10:39 24.98443 -77.58228 5130 ft 277 kts 347°
2026-05-08 10:39 25.00282 -77.58648 4784 ft 263 kts 347°
2026-05-08 10:39 25.02089 -77.59063 4475 ft 267 kts 347°
2026-05-08 10:39 25.03920 -77.59483 4145 ft 269 kts 347°
2026-05-08 10:40 25.05760 -77.59905 3829 ft 269 kts 347°
2026-05-08 10:40 25.07575 -77.60321 3519 ft 269 kts 347°
2026-05-08 10:40 25.09387 -77.60737 3389 ft 261 kts 347°
2026-05-08 10:40 25.11137 -77.61126 3250 ft 251 kts 352°
2026-05-08 10:41 25.12821 -77.60949 3054 ft 242 kts 24°
2026-05-08 10:41 25.14104 -77.59835 2850 ft 232 kts 58°
2026-05-08 10:41 25.14589 -77.58199 2613 ft 222 kts 93°
2026-05-08 10:41 25.14168 -77.56651 2356 ft 209 kts 128°
2026-05-08 10:42 25.13103 -77.55726 2123 ft 184 kts 153°
2026-05-08 10:42 25.12083 -77.54966 1829 ft 169 kts 142°
2026-05-08 10:42 25.11219 -77.54183 1625 ft 152 kts 141°
2026-05-08 10:42 25.10457 -77.53427 1429 ft 148 kts 137°
2026-05-08 10:43 25.09721 -77.52623 1267 ft 150 kts 136°
2026-05-08 10:43 25.09001 -77.51819 1061 ft 148 kts 136°
2026-05-08 10:43 25.08281 -77.51018 897 ft 146 kts 136°
2026-05-08 10:43 25.07575 -77.50230 734 ft 144 kts 135°
2026-05-08 10:44 25.06855 -77.49429 517 ft 147 kts 135°
2026-05-08 10:44 25.06141 -77.48627 347 ft 146 kts 135°
2026-05-08 10:44 25.05419 -77.47825 133 ft 148 kts 135°
2026-05-08 10:44 25.04711 -77.47036 26 ft 136 kts 135°
2026-05-08 10:45 25.04269 -77.46544 27 ft 56 kts 134°
2026-05-08 10:45 25.04117 -77.46279 28 ft 24 kts 110°
2026-05-08 10:45 25.04193 -77.46217 24 ft 20 kts 327°
2026-05-08 10:45 25.04289 -77.46322 23 ft 20 kts 312°
2026-05-08 10:46 25.04383 -77.46431 26 ft 20 kts 315°
2026-05-08 10:46 25.04482 -77.46536 26 ft 20 kts 316°
2026-05-08 10:46 25.04578 -77.46642 26 ft 20 kts 314°
2026-05-08 10:46 25.04666 -77.46727 26 ft 14 kts 341°
2026-05-08 10:47 25.04744 -77.46709 23 ft 10 kts 12°
2026-05-08 10:47 25.04785 -77.46724 26 ft 1 kts 320°
2026-05-08 10:47 25.04786 -77.46724 26 ft 0 kts 320°